1499162401.19,10578,16.0,74132.0,3.83,1.93,1.83,0,*7F
1499162402.44,10579,16.0,74132.3,3.83,1.71,1.63,0,*7C
1499162403.67,10580,16.0,74130.3,3.83,1.85,1.83,0,*7F
1499162404.9,10581,16.0,74128.8,3.83,1.97,1.83,0,*7D
1499162406.12,10582,16.0,74138.0,3.85,2.21,1.97,0,*73
1499162407.33,10583,16.0,74136.5,3.89,2.21,1.89,0,*71
1499162408.53,10584,16.0,74140.3,3.89,1.79,1.59,0,*75
1499162409.76,10585,16.0,74136.5,3.87,0.95,0.67,0,*75
1499162411.0,10586,16.0,74140.8,3.87,0.63,0.33,0,*7E
1499162412.21,10587,16.0,74136.8,3.85,0.63,0.29,0,*76
1499162413.44,10588,16.0,74138.5,3.87,0.75,0.51,0,*73
1499162414.66,10589,16.0,74136.8,3.85,0.79,0.51,0,*7C
1499162415.89,10590,16.0,74134.0,3.83,0.63,0.41,0,*78
1499162417.11,10591,16.0,74134.8,3.85,0.51,0.29,0,*70
1499162418.32,10592,16.0,74134.0,3.85,0.41,0.25,0,*7E
1499162419.53,10593,16.0,74136.8,3.85,0.71,0.59,0,*77
1499162420.76,10594,16.0,74134.5,3.85,1.37,1.25,0,*79
1499162421.98,10595,16.0,74132.3,3.85,1.47,1.43,0,*7F
1499162423.2,10596,16.0,74132.5,3.89,1.67,1.67,0,*74
1499162424.43,10597,16.0,74132.5,3.89,1.51,1.47,0,*72
1499162425.61,10598,16.0,74130.3,3.89,1.79,1.75,0,*76
1499162426.8,10599,16.0,74132.3,3.95,1.83,1.75,0,*7F
1499162428.02,10600,16.0,74132.0,3.93,1.67,1.71,0,*74
1499162429.22,10601,16.06,74132.3,3.95,1.75,1.75,0,*74
1499162430.42,10602,16.0,74128.3,3.95,1.75,1.75,0,*77
1499162431.64,10603,16.0,74130.3,3.99,1.47,1.47,0,*7A
1499162432.87,10604,16.0,74128.5,3.99,1.63,1.59,0,*74
1499162434.12,10605,16.0,74130.3,3.97,1.67,1.67,0,*72
1499162435.34,10606,16.0,74128.3,3.99,1.89,1.89,0,*7F
1499162436.58,10607,16.0,74126.5,3.99,1.85,1.85,0,*7E
1499162437.78,10608,16.0,74126.5,4.03,1.75,1.63,0,*72
1499162439.0,10609,16.0,74126.8,4.03,1.67,1.51,0,*71
1499162440.22,10610,16.0,74128.8,4.03,1.67,1.55,0,*7D
1499162441.42,10611,16.0,74130.5,4.03,1.63,1.41,0,*7D
1499162442.62,10612,16.0,74128.8,4.03,1.75,1.63,0,*79
1499162443.82,10613,16.0,74128.0,4.03,1.79,1.55,0,*71
1499162445.02,10614,16.0,74130.5,4.03,1.41,1.21,0,*7E
1499162446.22,10615,16.0,74128.3,4.03,1.55,1.41,0,*7C
1499162447.47,10616,16.0,74128.5,4.05,1.43,1.25,0,*7C
1499162448.73,10617,16.06,74136.5,4.05,1.13,0.87,0,*41
1499162449.99,10618,16.0,74132.8,4.05,1.09,0.75,0,*48
1499162451.21,10619,16.0,74128.5,4.05,0.97,0.75,0,*7F
1499162452.46,10620,16.0,74134.3,4.05,0.87,0.63,0,*73
1499162453.71,10621,16.06,74136.8,4.05,0.63,0.47,0,*7E
1499162454.92,10622,16.0,74130.8,4.03,0.47,0.21,0,*7D
1499162456.16,10623,16.0,74130.0,4.01,0.29,0.13,0,*77
1499162457.38,10624,16.0,74124.5,4.03,0.59,0.47,0,*74
1499162458.62,10625,16.0,74126.3,4.01,0.55,0.33,0,*78
1499162459.85,10626,16.0,74120.3,4.01,0.55,0.43,0,*7C
1499162461.08,10627,16.0,74124.3,4.01,0.33,0.17,0,*7C
1499162462.27,10628,16.0,74128.3,3.99,0.17,0.01,0,*44
1499162463.49,10629,16.0,74130.8,3.99,0.29,0.13,0,*7B
1499162464.71,10630,16.0,74124.3,3.99,0.41,0.21,0,*7C
1499162465.95,10631,16.0,74124.3,3.97,0.41,0.29,0,*7B
1499162467.19,10632,16.0,74120.0,3.97,0.41,0.29,0,*78
1499162468.41,10633,16.0,74122.5,3.97,0.29,0.09,0,*45
1499162469.65,10634,16.0,74120.5,3.97,0.37,0.13,0,*76
1499162470.88,10635,16.0,74122.5,3.95,0.41,0.17,0,*70
1499162472.11,10636,16.0,74120.8,3.95,0.37,0.17,0,*72
1499162473.28,10637,16.0,74120.3,3.93,-0.03,-0.19,0,*4C
1499162474.46,10638,16.0,74122.5,3.93,0.25,0.09,0,*46
1499162475.64,10639,16.0,74120.5,3.93,-0.03,-0.19,0,*42
1499162476.81,10640,16.0,74124.5,3.93,-0.65,-0.81,0,*7D
1499162478.0,10641,16.0,74124.3,3.89,-0.41,-0.53,0,*7E
1499162479.19,10642,16.0,74126.5,3.87,0.05,-0.11,0,*68
1499162480.4,10643,16.0,74124.0,3.85,-0.27,-0.45,0,*77
1499162481.58,10644,16.0,74120.5,3.85,-0.03,-0.11,0,*47
1499162482.78,10645,16.0,74120.8,3.83,0.13,0.05,0,*44
1499162483.99,10646,16.0,74122.0,3.83,0.13,0.01,0,*43
1499162485.2,10647,16.0,74122.0,3.83,0.13,0.05,0,*46
1499162486.43,10648,16.0,74126.3,3.83,0.25,0.17,0,*7F
1499162487.66,10649,16.0,74122.0,3.83,-0.27,-0.33,0,*7A
1499162488.87,10650,16.0,74122.3,3.79,-0.33,-0.41,0,*77
1499162490.1,10651,16.0,74120.5,3.79,0.21,0.17,0,*76
1499162491.32,10652,16.0,74122.5,3.79,0.21,0.09,0,*4A
1499162492.54,10653,16.0,74118.8,3.79,-0.19,-0.23,0,*78
1499162493.78,10654,16.0,74122.3,3.79,-0.19,-0.23,0,*7F
1499162494.99,10655,16.0,74122.3,3.79,-0.11,-0.11,0,*77
1499162496.22,10656,16.0,74120.0,3.75,0.17,0.13,0,*7C
1499162497.46,10657,16.0,74118.0,3.79,0.41,0.29,0,*7B
1499162498.69,10658,16.06,74122.3,3.75,0.75,0.75,0,*76
1499162499.94,10659,16.0,74116.3,3.75,0.91,0.87,0,*70
1499162501.18,10660,16.0,74116.0,3.75,0.63,0.47,0,*7B
1499162502.39,10661,16.0,74114.3,3.77,0.63,0.51,0,*7F
1499162503.64,10662,16.0,74116.0,3.75,0.87,0.59,0,*7C
1499162504.86,10663,16.0,74114.8,3.77,0.95,0.91,0,*78
1499162506.08,10664,16.0,74114.5,3.75,0.97,0.87,0,*78
1499162507.33,10665,16.0,74114.5,3.75,1.09,0.91,0,*48
1499162508.52,10666,16.0,74112.5,3.77,1.05,0.95,0,*41
1499162509.75,10667,16.0,74114.8,3.75,0.97,0.87,0,*7B
1499162510.97,10668,16.0,74116.0,3.77,0.95,0.91,0,*73
1499162512.19,10669,16.0,74116.5,3.77,0.95,0.91,0,*72
1499162513.41,10670,16.0,74114.8,3.77,0.95,0.91,0,*7A
1499162514.61,10671,16.0,74116.5,3.77,1.13,1.01,0,*7C
1499162515.84,10672,16.0,74118.5,3.75,0.97,0.91,0,*78
1499162517.06,10673,16.0,74116.3,3.79,1.05,0.95,0,*4B
1499162518.25,10674,16.0,74122.8,3.77,1.01,0.83,0,*41
1499162519.46,10675,16.0,74122.3,3.77,1.01,0.91,0,*43
1499162520.68,10676,16.0,74122.5,3.77,0.83,0.55,0,*73
1499162521.88,10677,16.0,74120.8,3.77,1.01,0.91,0,*41
1499162523.08,10678,16.0,74120.8,3.77,1.01,0.91,0,*4E
1499162524.29,10679,16.0,74116.3,3.77,1.05,0.91,0,*4B
1499162525.5,10680,16.0,74118.8,3.77,0.95,0.83,0,*76
1499162526.7,10681,16.0,74116.8,3.77,1.01,0.83,0,*4B
1499162527.91,10682,16.0,74120.0,3.77,0.67,0.51,0,*76
1499162529.16,10683,16.0,74116.5,3.75,0.87,0.75,0,*7D
1499162530.37,10684,16.0,74118.3,3.77,0.95,0.83,0,*72
1499162531.61,10685,16.0,74122.3,3.75,0.63,0.51,0,*77
1499162532.8,10686,16.0,74126.8,3.77,0.21,0.05,0,*41
1499162534.02,10687,16.0,74124.0,3.77,0.55,0.29,0,*7D
1499162535.26,10688,16.0,74124.5,3.75,0.47,0.29,0,*73
1499162536.49,10689,16.0,74128.8,3.75,0.29,0.17,0,*77
1499162537.73,10690,16.0,74130.8,3.75,0.51,0.37,0,*72
1499162538.96,10691,16.0,74128.5,3.75,0.51,0.37,0,*73
1499162540.18,10692,16.0,74128.8,3.73,0.41,0.25,0,*74
1499162541.39,10693,16.0,74128.3,3.73,0.59,0.41,0,*7E
1499162542.61,10694,16.0,74132.8,3.73,0.63,0.59,0,*79
1499162543.82,10695,16.0,74134.0,3.73,0.59,0.51,0,*79
1499162545.04,10696,16.0,74134.5,3.73,0.41,0.37,0,*73
1499162546.28,10697,16.0,74132.3,3.71,0.37,0.21,0,*76
1499162547.52,10698,16.0,74134.3,3.71,0.71,0.55,0,*78
1499162548.71,10699,16.0,74128.5,3.73,0.25,0.05,0,*4F
1499162549.93,10700,16.0,74134.3,3.67,0.17,0.05,0,*4A
1499162551.17,10701,16.0,74134.5,3.71,0.47,0.25,0,*7B
1499162552.39,10702,16.0,74138.5,3.65,0.55,0.33,0,*79
1499162553.6,10703,16.0,74138.0,3.67,0.43,0.21,0,*7E
1499162554.8,10704,16.0,74136.3,3.65,0.29,0.09,0,*4D
1499162555.97,10705,16.0,74136.3,3.65,0.09,-0.03,0,*59
1499162557.16,10706,16.0,74134.8,3.65,0.33,0.05,0,*48
1499162558.35,10707,16.0,74134.5,3.63,0.13,-0.07,0,*62
1499162559.56,10708,16.0,74138.0,3.61,0.29,0.05,0,*49
1499162560.8,10709,16.0,74134.0,3.61,0.41,0.25,0,*74
1499162562.03,10710,16.0,74136.3,3.61,0.37,0.13,0,*78
1499162563.21,10711,16.0,74134.8,3.59,0.33,0.01,0,*45
1499162564.42,10712,16.0,74134.3,3.59,0.33,0.13,0,*75
1499162565.63,10713,16.0,74134.0,3.59,-0.27,-0.49,0,*7E
1499162566.84,10714,16.0,74134.3,3.57,-0.19,-0.41,0,*72
1499162568.03,10715,16.0,74134.5,3.55,-0.03,-0.19,0,*47
1499162569.24,10716,16.0,74130.5,3.55,0.59,0.41,0,*76
1499162570.46,10717,16.0,74128.3,3.55,0.83,0.71,0,*73
1499162571.69,10718,16.0,74130.5,3.55,0.91,0.83,0,*72
1499162572.91,10719,16.0,74130.8,3.55,0.91,0.71,0,*7E
1499162574.11,10720,16.0,74132.5,3.55,0.55,0.43,0,*7D
1499162575.33,10721,16.0,74134.3,3.55,0.55,0.41,0,*7E
1499162576.55,10722,16.0,74130.8,3.55,0.47,0.33,0,*7B
1499162577.74,10723,16.0,74132.8,3.55,0.43,0.29,0,*75
1499162578.95,10724,16.0,74132.3,3.55,0.67,0.41,0,*7A
1499162580.13,10725,16.0,74136.8,3.55,0.43,0.41,0,*7D
1499162581.33,10726,16.0,74134.5,3.53,0.01,-0.19,0,*6E
1499162582.55,10727,16.0,74136.3,3.53,0.13,-0.11,0,*54
1499162583.76,10728,16.0,74136.0,3.53,-0.07,-0.33,0,*43
1499162584.96,10729,16.0,74134.0,3.53,-0.33,-0.61,0,*72
1499162586.14,10730,16.0,74132.3,3.51,-0.07,-0.33,0,*48
1499162587.34,10731,16.0,74130.0,3.49,0.01,-0.15,0,*6F
1499162588.56,10732,16.0,74128.8,3.49,0.25,0.01,0,*42
1499162589.74,10733,16.0,74128.8,3.51,0.43,0.25,0,*7C
1499162590.98,10734,16.0,74130.3,3.49,0.41,0.25,0,*70
1499162592.23,10735,16.0,74128.8,3.49,0.59,0.59,0,*73
1499162593.48,10736,16.0,74128.3,3.49,0.47,0.37,0,*77
1499162594.68,10737,16.06,74130.5,3.49,0.09,-0.11,0,*65
1499162595.93,10738,16.0,74126.0,3.49,0.41,0.21,0,*78
1499162597.18,10739,16.0,74126.3,3.49,0.59,0.51,0,*77
1499162598.39,10740,16.0,74128.0,3.51,0.67,0.51,0,*7D
1499162599.64,10741,16.0,74130.8,3.45,0.55,0.47,0,*7F
1499162600.88,10742,16.0,74128.8,3.45,0.47,0.33,0,*7C
1499162602.12,10743,16.0,74126.5,3.45,0.37,0.21,0,*79
1499162603.34,10744,16.0,74128.0,3.43,0.55,0.47,0,*7C
1499162604.59,10745,16.0,74130.3,3.45,0.83,0.71,0,*75
1499162605.83,10746,16.0,74130.8,3.45,0.95,0.83,0,*7C
1499162607.04,10747,16.0,74128.8,3.45,1.05,1.01,0,*7E
1499162608.27,10748,16.0,74128.0,3.49,1.17,0.97,0,*40
1499162609.52,10749,16.0,74128.5,3.49,1.09,0.95,0,*4C
1499162610.77,10750,16.0,74128.8,3.49,0.95,0.87,0,*73
1499162611.99,10751,16.0,74130.3,3.49,0.95,0.97,0,*73
1499162613.23,10752,16.0,74126.5,3.49,1.17,1.05,0,*71
1499162614.44,10753,16.0,74124.3,3.51,1.13,1.01,0,*79
1499162615.66,10754,16.0,74130.0,3.51,0.87,0.75,0,*70
1499162616.87,10755,16.0,74128.5,3.51,1.09,0.97,0,*4A
1499162618.07,10756,16.0,74128.8,3.51,0.97,0.87,0,*7E
1499162619.28,10757,16.0,74128.8,3.51,1.01,0.91,0,*46
1499162620.51,10758,16.0,74126.8,3.51,1.37,1.25,0,*72
1499162621.76,10759,16.0,74128.3,3.51,1.29,1.21,0,*78
1499162623.02,10760,16.0,74124.8,3.53,1.13,1.09,0,*73
1499162624.29,10761,16.0,74130.3,3.53,1.29,1.21,0,*71
1499162625.52,10762,16.0,74128.3,3.55,1.43,1.33,0,*7B
1499162626.75,10763,16.0,74128.5,3.55,1.43,1.33,0,*7A
1499162627.94,10764,16.0,74130.3,3.55,1.43,1.41,0,*78
1499162629.15,10765,16.0,74130.8,3.55,1.41,1.25,0,*79
1499162630.37,10766,16.0,74132.3,3.55,1.13,0.95,0,*47
1499162631.61,10767,16.0,74132.5,3.57,1.25,1.01,0,*7D
1499162632.82,10768,16.0,74134.3,3.59,1.21,1.05,0,*7C
1499162634.05,10769,16.0,74136.5,3.59,1.29,1.09,0,*79
1499162635.29,10770,16.0,74132.8,3.59,1.37,1.33,0,*77
1499162636.51,10771,16.0,74130.0,3.59,1.47,1.43,0,*76
1499162637.75,10772,16.0,74134.0,3.59,1.37,1.21,0,*76
1499162638.97,10773,16.0,74134.8,3.61,1.09,0.97,0,*4D
1499162640.23,10774,16.0,74134.0,3.61,1.09,0.87,0,*4B
1499162641.45,10775,16.06,74136.5,3.61,1.01,0.79,0,*43
1499162642.65,10776,16.0,74136.3,3.63,1.01,0.91,0,*44
1499162643.89,10777,16.0,74134.5,3.61,0.79,0.67,0,*70
1499162645.1,10778,16.0,74134.3,3.63,1.13,1.01,0,*71
1499162646.36,10779,16.0,74134.5,3.61,1.33,1.21,0,*72
1499162647.62,10780,16.0,74134.8,3.61,1.21,1.21,0,*77
1499162648.85,10781,16.0,74130.3,3.61,1.09,1.01,0,*7E
1499162650.07,10782,16.0,74128.0,3.61,0.91,0.97,0,*73
1499162651.3,10783,16.0,74134.0,3.63,1.25,1.25,0,*76
1499162652.52,10784,16.0,74132.5,3.63,1.51,1.63,0,*70
1499162653.74,10785,16.0,74130.8,3.63,1.59,1.59,0,*70
1499162654.97,10786,16.0,74130.3,3.67,1.13,1.05,0,*70
1499162656.21,10787,16.0,74128.8,3.65,1.25,1.29,0,*78
1499162657.41,10788,16.0,74128.5,3.67,1.05,1.05,0,*79
1499162658.65,10789,16.0,74130.3,3.65,1.29,1.29,0,*7A
1499162659.91,10790,16.0,74128.5,3.67,1.29,1.25,0,*7C
1499162661.17,10791,16.0,74132.8,3.67,1.13,0.95,0,*4E
1499162662.38,10792,16.0,74130.3,3.67,0.67,0.43,0,*74
1499162663.57,10793,16.0,74132.0,3.65,0.43,0.33,0,*76
1499162664.78,10794,16.0,74134.8,3.65,0.67,0.55,0,*77
1499162666.04,10795,16.0,74134.5,3.67,0.79,0.55,0,*7B
1499162667.27,10796,16.0,74134.5,3.65,0.91,0.91,0,*74
1499162668.49,10797,16.0,74134.3,3.63,0.79,0.75,0,*7F
1499162669.7,10798,16.0,74128.8,3.63,0.67,0.51,0,*79
1499162670.94,10799,16.0,74134.0,3.61,0.75,0.63,0,*78
1499162672.16,10800,16.0,74130.5,3.63,0.79,0.63,0,*79
1499162673.37,10801,16.0,74130.3,3.63,0.29,0.13,0,*7A
1499162674.6,10802,16.0,74128.0,3.61,0.41,0.17,0,*71
1499162675.84,10803,16.0,74126.5,3.61,0.51,0.17,0,*71
1499162677.05,10804,16.0,74128.0,3.61,0.25,0.05,0,*46
1499162678.26,10805,16.0,74124.8,3.59,0.33,0.13,0,*7C
1499162679.45,10806,16.0,74124.5,3.59,0.25,0.01,0,*4B
1499162680.67,10807,16.0,74124.5,3.57,0.21,-0.03,0,*6F
1499162681.85,10808,16.0,74126.5,3.59,0.21,0.01,0,*41
1499162683.07,10809,16.0,74124.8,3.57,0.17,-0.07,0,*60
1499162684.26,10810,16.0,74124.5,3.55,0.17,-0.07,0,*6A
1499162685.46,10811,16.0,74126.8,3.55,0.17,-0.07,0,*6B
1499162686.67,10812,16.0,74122.3,3.55,0.47,0.41,0,*72
1499162687.91,10813,16.0,74118.0,3.53,0.41,0.25,0,*71
1499162689.13,10814,16.0,74116.5,3.55,0.29,0.17,0,*7F
1499162690.34,10815,16.0,74120.8,3.53,0.43,0.29,0,*79
1499162691.54,10816,16.0,74120.8,3.53,0.01,-0.19,0,*62
1499162692.77,10817,16.0,74120.8,3.53,0.13,-0.11,0,*58
1499162694.01,10818,16.0,74122.5,3.53,0.29,0.17,0,*75
1499162695.2,10819,16.0,74120.3,3.53,0.01,-0.19,0,*6D
1499162696.41,10820,16.0,74122.5,3.53,0.05,-0.11,0,*6B
1499162697.6,10821,16.0,74120.5,3.51,0.13,-0.07,0,*68
1499162698.8,10822,16.0,74120.8,3.49,0.09,-0.03,0,*5D
1499162700.04,10823,16.0,74120.3,3.49,0.33,0.13,0,*79
1499162701.24,10824,16.0,74118.5,3.49,0.01,-0.15,0,*64
1499162702.46,10825,16.0,74124.5,3.49,0.21,0.09,0,*47
1499162703.66,10826,16.0,74124.8,3.45,0.05,-0.15,0,*6E
1499162704.88,10827,16.0,74128.5,3.45,0.17,-0.07,0,*6F
1499162706.07,10828,16.0,74130.8,3.43,0.17,-0.03,0,*62
1499162707.28,10829,16.0,74130.3,3.45,0.29,0.05,0,*43
1499162708.5,10830,16.0,74126.3,3.45,0.29,0.09,0,*47
1499162709.73,10831,16.0,74122.0,3.45,0.37,0.17,0,*76
1499162710.96,10832,16.0,74120.0,3.45,0.55,0.43,0,*70
1499162712.17,10833,16.0,74126.8,3.43,0.59,0.47,0,*7F
1499162713.37,10834,16.0,74126.5,3.43,0.55,0.43,0,*70
1499162714.58,10835,16.0,74120.3,3.43,0.47,0.33,0,*75
1499162715.8,10836,16.0,74120.3,3.43,0.37,0.21,0,*72
1499162716.98,10837,16.0,74124.3,3.43,0.43,0.17,0,*75
1499162718.19,10838,16.0,74124.8,3.43,0.33,0.17,0,*7D
1499162719.38,10839,16.0,74128.3,3.41,0.43,0.43,0,*78
1499162720.6,10840,16.0,74126.3,3.43,0.59,0.55,0,*78
1499162721.81,10841,16.0,74126.0,3.43,0.79,0.67,0,*7A
1499162723.03,10842,16.0,74124.3,3.43,0.79,0.71,0,*7E
1499162724.23,10843,16.0,74128.0,3.43,0.95,1.01,0,*4B
1499162725.47,10844,16.0,74126.8,3.43,1.21,1.21,0,*70
1499162726.73,10845,16.0,74128.3,3.45,1.29,1.29,0,*77
1499162727.96,10846,16.0,74126.5,3.45,1.13,1.05,0,*73
1499162729.2,10847,16.0,74126.3,3.49,1.09,1.05,0,*75
1499162730.47,10848,16.0,74124.3,3.49,1.21,1.09,0,*7C
1499162731.72,10849,16.0,74124.8,3.49,1.25,1.25,0,*77
1499162732.96,10850,16.0,74120.3,3.49,1.17,1.05,0,*7C
1499162734.21,10851,16.0,74120.8,3.49,0.83,0.71,0,*73
1499162735.42,10852,16.0,74124.5,3.51,0.75,0.67,0,*77
1499162736.64,10853,16.0,74122.5,3.51,0.79,0.67,0,*7A
1499162737.87,10854,16.0,74122.3,3.49,1.05,0.95,0,*43
1499162739.11,10855,16.0,74126.8,3.53,0.79,0.67,0,*7E
1499162740.36,10856,16.0,74126.8,3.49,0.87,0.83,0,*7D
1499162741.57,10857,16.0,74124.8,3.51,1.01,0.91,0,*49
1499162742.8,10858,16.0,74124.5,3.51,0.79,0.75,0,*72
1499162744.0,10859,16.0,74124.5,3.51,1.01,0.87,0,*40
1499162745.21,10860,16.0,74126.5,3.51,1.01,0.91,0,*4D
1499162746.43,10861,16.0,74130.3,3.51,0.87,0.79,0,*75
1499162747.67,10862,16.0,74124.0,3.49,0.75,0.63,0,*79
1499162748.91,10863,16.0,74126.5,3.53,1.01,0.87,0,*4B
1499162750.16,10864,16.0,74130.0,3.53,0.87,0.75,0,*7E
1499162751.4,10865,16.0,74126.5,3.49,0.63,0.51,0,*78
1499162752.62,10866,16.0,74124.3,3.51,0.63,0.51,0,*72
1499162753.87,10867,16.0,74126.5,3.49,0.51,0.47,0,*7C
1499162755.09,10868,16.0,74124.8,3.51,0.55,0.41,0,*78
1499162756.33,10869,16.0,74124.3,3.49,0.59,0.63,0,*7C
1499162757.56,10870,16.0,74122.3,3.51,0.79,0.63,0,*7F
1499162758.82,10871,16.0,74120.3,3.49,1.21,1.21,0,*7C
1499162760.09,10872,16.0,74124.3,3.49,1.33,1.25,0,*78
1499162761.34,10873,16.0,74126.8,3.49,0.95,0.83,0,*79
1499162762.57,10874,16.0,74122.0,3.51,1.09,0.91,0,*40
1499162763.78,10875,16.06,74130.0,3.51,1.01,0.87,0,*4E
1499162765.03,10876,16.0,74126.5,3.49,0.87,0.75,0,*76
1499162766.24,10877,16.0,74126.0,3.51,0.63,0.41,0,*73
1499162767.49,10878,16.0,74124.3,3.49,0.83,0.71,0,*78
1499162768.74,10879,16.0,74124.8,3.49,0.83,0.71,0,*79
1499162769.95,10880,16.0,74124.8,3.51,0.67,0.63,0,*7F
1499162771.19,10881,16.0,74124.3,3.49,0.75,0.71,0,*77
1499162772.4,10882,16.0,74128.8,3.51,0.97,0.87,0,*78
1499162773.64,10883,16.0,74130.3,3.51,1.13,1.09,0,*73
1499162774.84,10884,16.0,74130.3,3.51,0.97,0.91,0,*79
1499162776.04,10885,16.0,74128.3,3.51,0.97,0.87,0,*7F
1499162777.3,10886,16.0,74130.3,3.49,1.25,1.17,0,*75
1499162778.51,10887,16.0,74126.8,3.51,1.01,0.91,0,*44
1499162779.72,10888,16.0,74128.0,3.51,1.13,1.01,0,*70
1499162780.95,10889,16.0,74128.8,3.51,1.25,1.13,0,*77
1499162782.19,10890,16.0,74128.8,3.51,1.29,1.13,0,*73
1499162783.43,10891,16.0,74134.8,3.53,0.75,0.67,0,*7A
1499162784.68,10892,16.0,74128.5,3.53,0.87,0.79,0,*7B
1499162785.92,10893,16.0,74124.5,3.51,1.13,1.09,0,*72
1499162787.16,10894,16.0,74128.8,3.51,1.21,1.21,0,*7E
1499162788.38,10895,16.0,74130.3,3.51,0.63,0.51,0,*7E
1499162789.59,10896,16.0,74134.8,3.51,0.67,0.67,0,*7C
1499162790.8,10897,16.0,74130.3,3.51,1.09,1.01,0,*75
1499162792.04,10898,16.0,74128.8,3.51,1.21,1.09,0,*78
1499162793.27,10899,16.0,74130.5,3.51,1.25,1.21,0,*77
1499162794.48,10900,16.0,74130.5,3.51,1.41,1.37,0,*73
1499162795.71,10901,16.0,74134.0,3.55,1.33,1.25,0,*70
1499162796.92,10902,16.06,74132.0,3.55,1.41,1.33,0,*71
1499162798.15,10903,16.0,74130.8,3.55,1.43,1.33,0,*72
1499162799.37,10904,16.0,74130.8,3.55,1.51,1.43,0,*71
1499162800.6,10905,16.0,74128.5,3.57,1.55,1.41,0,*74
1499162801.83,10906,16.0,74134.5,3.55,1.63,1.55,0,*75
1499162803.09,10907,16.0,74134.0,3.57,1.97,1.85,0,*70
1499162804.34,10908,16.0,74134.5,3.57,1.97,1.89,0,*73
1499162805.58,10909,16.0,74132.3,3.59,2.17,2.01,0,*74
1499162806.83,10910,16.0,74134.8,3.61,2.21,2.13,0,*71
1499162808.05,10911,16.0,74132.3,3.63,2.21,2.21,0,*73
1499162809.27,10912,16.0,74130.0,3.63,2.05,1.93,0,*7C
1499162810.5,10913,16.06,74132.3,3.65,1.97,1.89,0,*78
1499162811.73,10914,16.0,74128.5,3.65,2.25,2.17,0,*71
1499162812.99,10915,16.0,74128.5,3.67,2.17,2.13,0,*77
1499162814.25,10916,16.0,74134.3,3.67,2.25,2.25,0,*70
1499162815.45,10917,16.0,74130.8,3.71,2.31,2.27,0,*71
1499162816.68,10918,16.0,74134.0,3.73,2.21,2.17,0,*7E
1499162817.91,10919,16.0,74134.0,3.73,2.09,2.09,0,*7A
1499162819.14,10920,16.0,74132.5,3.77,1.97,1.85,0,*77
1499162820.38,10921,16.0,74132.0,3.75,1.71,1.63,0,*74
1499162821.63,10922,16.0,74134.8,3.75,1.71,1.59,0,*7E
1499162822.86,10923,16.06,74138.3,3.75,1.85,1.75,0,*7A
1499162824.11,10924,16.0,74136.5,3.75,1.97,1.97,0,*72
1499162825.33,10925,16.0,74136.3,3.77,2.13,2.01,0,*72
1499162826.58,10926,16.0,74132.0,3.79,2.25,2.13,0,*79
1499162827.83,10927,16.0,74134.5,3.79,1.67,1.63,0,*79
1499162829.06,10928,16.0,74130.8,3.79,1.85,1.79,0,*71
1499162830.28,10929,16.0,74132.0,3.81,1.67,1.59,0,*79
1499162831.47,10930,16.0,74128.8,3.81,1.79,1.59,0,*7E
1499162832.7,10931,16.06,74134.8,3.81,1.71,1.67,0,*7A
1499162833.92,10932,16.0,74132.3,3.81,1.55,1.59,0,*72
1499162835.14,10933,16.06,74132.5,3.81,1.71,1.59,0,*75
1499162836.36,10934,16.0,74130.3,3.83,1.83,1.71,0,*77
1499162837.6,10935,16.0,74130.5,3.83,2.05,1.93,0,*77
1499162838.81,10936,16.0,74132.0,3.85,1.93,1.83,0,*7F
1499162840.03,10937,16.0,74134.8,3.83,1.85,1.75,0,*76
1499162841.26,10938,16.06,74136.8,3.85,2.09,1.97,0,*74
1499162842.51,10939,16.0,74134.8,3.83,2.17,2.05,0,*74
1499162843.73,10940,16.0,74134.5,3.85,2.05,1.97,0,*77
1499162844.95,10941,16.0,74134.8,3.85,2.05,1.97,0,*76
1499162846.17,10942,16.0,74134.8,3.89,2.21,2.09,0,*7B
1499162847.42,10943,16.0,74134.3,3.87,2.09,1.97,0,*7A
1499162848.67,10944,16.0,74132.0,3.87,1.37,1.25,0,*7A
1499162849.93,10945,16.0,74132.3,3.87,1.29,1.25,0,*74
1499162851.12,10946,16.06,74134.8,3.89,1.47,1.41,0,*73
1499162852.36,10947,16.0,74132.0,3.87,1.59,1.47,0,*75
1499162853.56,10948,16.0,74134.0,3.89,1.75,1.67,0,*78
1499162854.78,10949,16.06,74134.0,3.89,1.59,1.47,0,*75
1499162856.04,10950,16.06,74132.0,3.87,1.29,1.29,0,*7C
1499162857.3,10951,16.06,74132.0,3.87,1.37,1.29,0,*72
1499162858.52,10952,16.0,74134.3,3.89,1.47,1.29,0,*78
1499162859.77,10953,16.0,74130.0,3.87,1.47,1.37,0,*78
1499162860.99,10954,16.06,74132.5,3.87,1.41,1.37,0,*79
1499162862.19,10955,16.0,74130.3,3.89,1.47,1.41,0,*71
1499162863.42,10956,16.0,74130.8,3.89,1.17,1.25,0,*75
1499162864.65,10957,16.0,74130.8,3.87,1.13,1.05,0,*7C
1499162865.88,10958,16.06,74134.5,3.89,1.25,1.13,0,*7F
1499162867.13,10959,16.0,74126.8,3.87,1.17,1.25,0,*74
1499162868.38,10960,16.06,74128.0,3.87,1.29,1.25,0,*73
1499162869.61,10961,16.06,74132.5,3.87,1.17,1.05,0,*7D
1499162870.83,10962,16.06,74130.8,3.87,1.01,0.79,0,*43
1499162872.08,10963,16.0,74128.8,3.87,1.17,1.13,0,*78
1499162873.31,10964,16.06,74130.5,3.87,1.25,1.05,0,*79
1499162874.56,10965,16.0,74124.0,3.87,1.37,1.29,0,*75
1499162875.73,10966,16.06,74128.5,3.89,1.41,1.41,0,*77
1499162876.98,10967,16.0,74124.3,3.87,1.25,1.13,0,*7D
1499162878.21,10968,16.0,74122.3,3.89,1.67,1.67,0,*79
1499162879.45,10969,16.06,74124.5,3.87,1.67,1.67,0,*76
1499162880.65,10970,16.06,74124.0,3.87,1.79,1.75,0,*72
1499162881.85,10971,16.06,74126.3,3.87,1.75,1.75,0,*7F
1499162883.05,10972,16.06,74124.5,3.87,1.75,1.75,0,*7C
1499162884.27,10973,16.06,74126.8,3.89,1.59,1.51,0,*7B
1499162885.49,10974,16.06,74122.5,3.89,1.59,1.47,0,*7B
1499162886.69,10975,16.0,74120.5,3.89,1.41,1.29,0,*7B
1499162887.93,10976,16.06,74126.3,3.89,1.29,1.17,0,*7B
1499162889.11,10977,16.06,74126.0,3.89,1.05,1.05,0,*77
1499162890.31,10978,16.0,74124.5,3.87,1.05,1.05,0,*76
1499162891.5,10979,16.06,74126.3,3.87,1.01,1.01,0,*77
1499162892.73,10980,16.0,74124.8,3.87,1.17,1.05,0,*72
1499162893.96,10981,16.06,74126.3,3.87,1.13,1.01,0,*73
1499162895.18,10982,16.06,74126.0,3.87,1.05,0.95,0,*4B
1499162896.4,10983,16.0,74126.8,3.87,1.05,0.79,0,*48
1499162897.63,10984,16.06,74126.3,3.87,0.95,0.79,0,*77
1499162898.88,10985,16.06,74126.0,3.83,0.91,0.75,0,*7A
1499162900.11,10986,16.06,74130.3,3.85,1.25,1.13,0,*70
1499162901.33,10987,16.06,74130.5,3.85,1.25,1.13,0,*71
1499162902.59,10988,16.0,74126.3,3.83,1.33,1.21,0,*7E
1499162903.83,10989,16.06,74130.0,3.85,1.21,1.13,0,*7B
1499162905.05,10990,16.06,74128.0,3.85,1.25,1.09,0,*7C
1499162906.29,10991,16.0,74126.8,3.85,1.21,1.13,0,*72
1499162907.55,10992,16.0,74128.3,3.83,1.13,1.09,0,*7D
1499162908.75,10993,16.06,74128.8,3.83,1.01,1.01,0,*77
1499162909.99,10994,16.06,74130.5,3.83,0.87,0.71,0,*79
1499162911.2,10995,16.06,74130.8,3.81,0.83,0.71,0,*7E
1499162912.39,10996,16.06,74130.8,3.81,0.97,0.95,0,*72
1499162913.63,10997,16.0,74128.3,3.81,1.21,1.09,0,*7B
1499162914.84,10998,16.0,74128.5,3.81,1.17,1.05,0,*7D
1499162916.04,10999,16.06,74130.8,3.81,1.41,1.21,0,*79
1499162917.26,11000,16.0,74130.3,3.79,1.01,0.95,0,*4C
1499162918.43,11001,16.06,74134.0,3.81,1.05,0.97,0,*4C
1499162919.65,11002,16.0,74132.0,3.79,1.05,0.95,0,*4A
1499162920.9,11003,16.06,74134.0,3.79,1.25,1.17,0,*72
1499162922.1,11004,16.06,74134.8,3.81,1.17,0.97,0,*4A
1499162923.33,11005,16.06,74134.8,3.79,1.01,0.91,0,*4D
1499162924.56,11006,16.06,74136.0,3.79,1.05,0.91,0,*4A
1499162925.77,11007,16.0,74134.5,3.79,1.05,0.95,0,*4F
1499162926.97,11008,16.06,74136.5,3.81,0.97,0.83,0,*7A
1499162928.21,11009,16.06,74132.8,3.79,0.83,0.79,0,*7C
1499162929.45,11010,16.0,74132.0,3.79,0.83,0.67,0,*7B
1499162930.7,11011,16.06,74136.0,3.79,0.91,0.91,0,*70
1499162931.9,11012,16.06,74136.0,3.79,1.01,1.05,0,*77
1499162933.1,11013,16.06,74132.0,3.77,1.05,0.95,0,*44
1499162934.31,11014,16.06,74136.0,3.77,0.71,0.55,0,*7D
1499162935.55,11015,16.06,74132.0,3.75,0.59,0.37,0,*70
1499162936.78,11016,16.06,74134.0,3.75,0.67,0.59,0,*76
1499162937.97,11017,16.06,74134.3,3.77,0.29,0.09,0,*4A
1499162939.2,11018,16.0,74132.0,3.75,0.41,0.25,0,*77
1499162940.41,11019,16.0,74130.0,3.73,0.37,0.13,0,*74
1499162941.63,11020,16.06,74132.3,3.73,0.29,0.13,0,*71